CW2305 Weather Reports


time (UTC)temp
F
wind
direction
speed
knots
gust
knots
rain 1hr
in
rain 24hr
in
rain mn
in
humidity
%
barometer
mb
20260505200019 52 351 0.9 7.8 0.00 0.00 0.00 72 1014.8
20260505195506 52 41 1.7 8.7 0.00 0.00 0.00 70 1014.6
20260505195006 53 360 2.6 8.7 0.00 0.00 0.00 67 1014.6
20260505194516 53 360 0.0 4.3 0.00 0.00 0.00 64 1014.5
20260505194011 53 321 0.0 4.3 0.00 0.00 0.00 63 1014.4
20260505193506 53 18 1.7 4.3 0.00 0.00 0.00 63 1014.4
20260505193015 53 9 0.9 4.3 0.00 0.00 0.00 64 1014.4
20260505192509 53 63 0.9 3.5 0.00 0.00 0.00 64 1014.3
20260505192006 53 44 0.0 4.3 0.00 0.00 0.00 64 1014.4
20260505191518 53 36 0.0 4.3 0.00 0.00 0.00 64 1014.3
20260505191008 53 9 0.9 3.5 0.00 0.00 0.00 63 1014.2
20260505190506 53 332 1.7 4.3 0.00 0.00 0.00 63 1014.2
20260505190018 54 58 0.9 4.3 0.00 0.00 0.00 63 1014.2
20260505185510 54 332 1.7 4.3 0.00 0.00 0.00 62 1014.1
20260505185006 54 352 0.9 3.5 0.00 0.00 0.00 63 1014.0
20260505184520 54 304 0.9 3.5 0.00 0.00 0.00 62 1014.0
20260505184008 54 352 0.0 5.2 0.00 0.00 0.00 61 1014.0
20260505183506 54 269 0.9 5.2 0.00 0.00 0.00 61 1014.0
20260505183017 54 301 1.7 4.3 0.00 0.00 0.00 60 1013.9
20260505182509 54 336 0.9 4.3 0.00 0.00 0.00 60 1013.9
20260505182007 55 299 0.0 4.3 0.00 0.00 0.00 62 1013.9
20260505181517 55 45 0.0 4.3 0.00 0.00 0.00 61 1013.9
20260505181006 55 307 1.7 4.3 0.00 0.00 0.00 62 1013.9
20260505180509 55 60 0.0 4.3 0.00 0.00 0.00 63 1013.8
20260505180039 55 306 1.7 5.2 0.00 0.00 0.00 63 1013.8
20260505175507 55 5 1.7 5.2 0.00 0.00 0.00 62 1013.9
20260505175006 55 24 0.9 7.0 0.00 0.00 0.00 62 1013.9
20260505174518 55 12 0.9 8.7 0.00 0.00 0.00 61 1013.9
20260505174011 55 32 1.7 8.7 0.00 0.00 0.00 61 1013.9
20260505173506 55 43 1.7 3.5 0.00 0.00 0.00 60 1013.9
20260505173019 56 325 0.0 5.2 0.00 0.00 0.00 61 1013.9
20260505172515 55 64 0.9 5.2 0.00 0.00 0.00 60 1013.9
20260505172014 55 57 0.9 4.3 0.00 0.00 0.00 61 1013.9
20260505171520 55 13 1.7 4.3 0.00 0.00 0.00 59 1014.0
20260505171014 55 15 0.9 8.7 0.00 0.00 0.00 60 1014.1
20260505170510 55 40 0.0 8.7 0.00 0.00 0.00 61 1014.1
20260505170022 56 5 2.6 8.7 0.00 0.00 0.00 59 1014.1
20260505165507 56 309 1.7 7.0 0.00 0.00 0.00 58 1014.1
20260505165008 56 340 0.9 7.0 0.00 0.00 0.00 59 1014.0
20260505164519 56 25 1.7 6.1 0.00 0.00 0.00 58 1014.0
20260505164007 56 327 1.7 7.0 0.00 0.00 0.00 59 1014.0
20260505163509 56 346 2.6 7.0 0.00 0.00 0.00 58 1014.0
20260505163019 56 348 1.7 5.2 0.00 0.00 0.00 59 1014.0
20260505162506 56 320 0.9 6.1 0.00 0.00 0.00 59 1013.9
20260505162007 56 25 1.7 6.1 0.00 0.00 0.00 59 1013.9
20260505161522 56 352 0.9 4.3 0.00 0.00 0.00 61 1013.9
20260505161006 56 321 1.7 4.3 0.00 0.00 0.00 59 1014.0
20260505160507 56 13 0.9 4.3 0.00 0.00 0.00 60 1014.0
20260505153021 57 9 0.9 5.2 0.00 0.00 0.00 58 1014.0
20260505152511 57 42 1.7 5.2 0.00 0.00 0.00 56 1014.1
20260505152011 58 288 0.0 4.3 0.00 0.00 0.00 54 1014.1
20260505151521 58 352 0.9 2.6 0.00 0.00 0.00 54 1014.0
20260505151010 58 40 0.0 2.6 0.00 0.00 0.00 55 1014.0
20260505150507 58 42 0.0 7.0 0.00 0.00 0.00 53 1014.0
20260505140507 58 19 1.7 7.0 0.00 0.00 0.00 54 1014.2
20260505125009 61 280 2.6 8.7 0.00 0.00 0.00 48 1014.3
20260505124526 61 336 1.7 3.5 0.00 0.00 0.00 50 1014.3
20260505124010 60 13 1.7 9.6 0.00 0.00 0.00 49 1014.2
20260505123512 60 39 2.6 9.6 0.00 0.00 0.00 53 1014.3
20260505123032 60 15 1.7 6.1 0.00 0.00 0.00 55 1014.3
20260505122508 58 335 2.6 6.1 0.00 0.00 0.00 55 1014.4
20260505122009 57 352 0.9 4.3 0.00 0.00 0.00 57 1014.5
20260505121526 57 84 1.7 4.3 0.00 0.00 0.00 56 1014.5
20260505121009 58 12 1.7 6.1 0.00 0.00 0.00 54 1014.5
20260505120506 58 348 0.9 6.1 0.00 0.00 0.00 55 1014.5
20260505120027 59 23 0.9 6.1 0.00 0.00 0.00 55 1014.6
20260505115509 58 5 1.7 5.2 0.00 0.00 0.00 56 1014.6
20260505115006 58 281 1.7 5.2 0.00 0.00 0.00 56 1014.6
20260505114517 58 94 0.9 3.5 0.00 0.00 0.00 56 1014.6
20260505114010 58 313 0.9 9.6 0.00 0.00 0.00 58 1014.6
20260505113512 58 9 1.7 9.6 0.00 0.00 0.00 58 1014.6
20260505113004 58 11 1.7 7.8 0.00 0.00 0.00 59 1014.6
20260505112503 58 296 2.6 7.0 0.00 0.00 0.00 58 1014.6
20260505112003 59 55 1.7 7.0 0.00 0.00 0.00 57 1014.6
20260505111516 59 242 0.9 7.0 0.00 0.00 0.00 57 1014.5
20260505111004 60 67 0.9 8.7 0.00 0.00 0.00 59 1014.5
20260505110503 60 304 1.7 8.7 0.00 0.00 0.00 55 1014.5
20260505102006 55 19 1.7 7.8 0.00 0.00 0.00 62 1015.0
20260505101514 55 338 1.7 7.8 0.00 0.00 0.00 60 1015.0
20260505101004 56 306 2.6 7.8 0.00 0.00 0.00 60 1014.9
20260505100504 57 38 0.9 7.8 0.00 0.00 0.00 58 1014.9
20260505100021 57 352 2.6 7.8 0.00 0.00 0.00 59 1014.9
20260505095504 57 19 2.6 7.8 0.00 0.00 0.00 59 1014.9
20260505095004 57 26 1.7 6.1 0.00 0.00 0.00 58 1014.8
20260505094512 56 41 0.9 5.2 0.00 0.00 0.00 59 1014.9
20260505094008 57 346 0.9 6.1 0.00 0.00 0.00 58 1014.9
20260505093507 57 59 0.9 9.6 0.00 0.00 0.00 55 1015.0
20260505093022 58 344 2.6 9.6 0.00 0.00 0.00 53 1015.0
20260505092509 58 342 2.6 7.8 0.00 0.00 0.00 60 1014.9
20260505092006 57 352 2.6 7.8 0.00 0.00 0.00 59 1014.9
20260505091521 56 58 1.7 7.8 0.00 0.00 0.00 61 1014.9
20260505091012 56 73 1.7 8.7 0.00 0.00 0.00 62 1014.9
20260505090503 56 311 1.7 10.4 0.00 0.00 0.00 58 1015.0
20260505090008 58 46 3.5 10.4 0.00 0.00 0.00 59 1015.0
20260505085011 57 291 0.9 4.3 0.00 0.00 0.00 63 1014.9
20260505084528 56 303 0.9 4.3 0.00 0.00 0.00 63 1014.9
20260505084011 56 352 1.7 5.2 0.00 0.00 0.00 64 1014.9
20260505083507 56 42 1.7 5.2 0.00 0.00 0.00 67 1015.0
20260505083025 55 294 1.7 7.0 0.00 0.00 0.00 66 1015.0
20260505082511 55 63 1.7 7.0 0.00 0.00 0.00 66 1015.0
20260505082009 54 21 0.9 7.0 0.00 0.00 0.00 71 1015.0
20260505081527 53 38 1.7 5.2 0.00 0.00 0.00 72 1015.2
20260505081008 53 296 0.9 7.0 0.00 0.00 0.00 73 1015.2
20260505080507 52 327 1.7 7.0 0.00 0.00 0.00 72 1015.3
20260505080024 52 315 0.9 5.2 0.00 0.00 0.00 74 1015.3
20260505075510 51 325 1.7 5.2 0.00 0.00 0.00 75 1015.3
20260505075010 51 20 1.7 5.2 0.00 0.00 0.00 75 1015.2
20260505074527 51 360 0.9 4.3 0.00 0.00 0.00 77 1015.2
20260505074012 50 360 0.9 10.4 0.00 0.00 0.00 78 1015.2
20260505073507 50 360 0.9 10.4 0.00 0.00 0.00 79 1015.3
20260505073036 50 360 1.7 7.0 0.00 0.00 0.00 78 1015.3
20260505072511 50 360 0.9 7.0 0.00 0.00 0.00 80 1015.2
20260505072009 49 360 1.7 7.0 0.00 0.00 0.00 81 1015.2
20260505071526 49 360 0.0 4.3 0.00 0.00 0.00 81 1015.2
20260505071010 49 360 0.9 4.3 0.00 0.00 0.00 82 1015.1
20260505070512 49 360 1.7 4.3 0.00 0.00 0.00 82 1015.2
20260505070022 48 360 1.7 7.0 0.00 0.00 0.00 83 1015.2
20260505065509 48 360 1.7 7.0 0.00 0.00 0.00 85 1015.3
20260505065009 48 360 1.7 4.3 0.00 0.00 0.00 86 1015.3
20260505064524 47 360 0.9 4.3 0.00 0.00 0.00 88 1015.3
20260505064010 47 360 0.9 3.5 0.00 0.00 0.00 88 1015.5
20260505063510 46 360 0.9 3.5 0.00 0.00 0.00 89 1015.4
20260505063028 46 360 0.0 5.2 0.00 0.00 0.00 90 1015.4
20260505062511 45 360 0.9 5.2 0.00 0.00 0.00 90 1015.4
20260505062012 45 360 0.9 2.6 0.00 0.00 0.00 90 1015.4
20260505061533 45 360 0.9 2.6 0.00 0.00 0.00 91 1015.4
20260505061006 45 360 0.0 2.6 0.00 0.00 0.00 91 1015.3
20260505060513 44 360 0.9 3.5 0.00 0.00 0.00 91 1015.3
20260505060026 44 360 1.7 3.5 0.00 0.00 0.00 91 1015.3
20260505055513 44 360 0.0 2.6 0.00 0.00 0.00 91 1015.3
20260505055017 44 360 0.9 2.6 0.00 0.00 0.00 91 1015.3
20260505054523 44 360 0.0 3.5 0.00 0.00 0.00 92 1015.3
20260505054014 43 360 0.0 3.5 0.00 0.00 0.00 92 1015.3
20260505053513 43 360 0.0 0.9 0.00 0.00 0.00 91 1015.2
20260505053014 43 360 0.0 1.7 0.00 0.00 0.00 91 1015.2
20260505052507 43 360 0.0 1.7 0.00 0.00 0.00 91 1015.3
20260505052009 43 360 0.0 0.9 0.00 0.00 0.00 91 1015.3
20260505051530 43 360 0.0 1.7 0.00 0.00 0.00 90 1015.3
20260505051007 43 360 0.0 2.6 0.00 0.00 0.00 91 1015.2
20260505050507 43 360 0.0 2.6 0.00 0.00 0.00 91 1015.2
20260505041511 43 360 0.0 2.6 0.00 0.00 0.00 90 1015.0
20260505041013 43 360 0.0 1.7 0.00 0.00 0.00 90 1014.9
20260505040510 43 360 0.0 1.7 0.00 0.00 0.00 89 1014.9
20260505040016 44 360 0.0 2.6 0.00 0.00 0.00 89 1014.9
20260505035510 44 360 0.0 2.6 0.00 0.00 0.00 89 1014.9
20260505035008 44 360 0.0 1.7 0.00 0.00 0.00 89 1014.9
20260505034523 44 360 0.0 1.7 0.00 0.00 0.00 89 1014.8
20260505034010 44 360 0.0 1.7 0.00 0.00 0.00 89 1014.8
20260505033507 44 360 0.0 0.0 0.00 0.00 0.00 89 1014.8
20260505033023 44 360 0.0 3.5 0.00 0.00 0.00 89 1014.9
20260505032509 44 360 0.9 4.3 0.00 0.00 0.00 89 1014.9
20260505032010 44 360 0.9 4.3 0.00 0.00 0.00 89 1014.9
20260505031535 44 360 0.0 4.3 0.00 0.00 0.00 90 1014.9
20260505031013 44 360 0.0 3.5 0.00 0.00 0.00 90 1015.0
20260505030507 44 360 0.0 3.5 0.00 0.00 0.00 90 1015.0
20260505030016 44 360 0.9 3.5 0.00 0.00 0.00 91 1014.9
20260505025507 44 360 0.0 2.6 0.00 0.00 0.00 91 1014.9
20260505025006 44 360 0.0 3.5 0.00 0.00 0.00 91 1014.8
20260505024521 44 360 0.0 3.5 0.00 0.00 0.00 92 1014.9
20260505024008 44 360 0.0 1.7 0.00 0.00 0.00 92 1014.9
20260505023506 44 360 0.0 3.5 0.00 0.00 0.00 93 1014.9
20260505023022 44 360 0.0 3.5 0.00 0.00 0.00 93 1015.0
20260505022507 44 360 0.9 1.7 0.00 0.00 0.00 94 1015.0
20260505022012 44 360 0.0 3.5 0.00 0.00 0.00 94 1015.1
20260505021529 44 360 0.0 3.5 0.00 0.00 0.00 95 1015.1
20260505021012 43 360 0.0 1.7 0.00 0.00 0.00 94 1015.1
20260505020506 43 360 0.0 0.0 0.00 0.00 0.00 94 1015.0
20260505020031 42 360 0.0 0.0 0.00 0.00 0.00 93 1015.1
20260505015508 42 360 0.0 0.0 0.00 0.00 0.00 92 1015.1
20260505015007 43 360 0.0 0.0 0.00 0.00 0.00 93 1015.1
20260505014516 43 360 0.0 0.0 0.00 0.00 0.00 93 1015.1
20260505014006 43 360 0.0 0.0 0.00 0.00 0.00 92 1015.1
20260505013506 43 360 0.0 0.0 0.00 0.00 0.00 92 1015.2
20260505013028 43 360 0.0 0.0 0.00 0.00 0.00 92 1015.3
20260505012506 43 360 0.0 0.0 0.00 0.00 0.00 92 1015.2
20260505012011 43 360 0.0 0.0 0.00 0.00 0.00 93 1015.3
20260505011532 43 360 0.0 0.0 0.00 0.00 0.00 92 1015.4
20260505011008 44 360 0.0 0.0 0.00 0.00 0.00 92 1015.4
20260505010511 44 360 0.0 0.0 0.00 0.00 0.00 92 1015.5
20260505010045 44 360 0.0 0.0 0.00 0.00 0.00 92 1015.5
20260505005507 44 360 0.0 0.0 0.00 0.00 0.00 92 1015.5
20260505005007 44 360 0.0 0.0 0.00 0.00 0.00 92 1015.5
20260505004528 44 360 0.0 0.0 0.00 0.00 0.00 92 1015.5
20260505004006 44 360 0.0 0.0 0.00 0.00 0.00 92 1015.7
20260505003508 45 360 0.0 0.0 0.00 0.00 0.00 92 1015.7
20260505003021 45 360 0.0 0.0 0.00 0.00 0.00 92 1015.8
20260505002510 45 360 0.0 0.0 0.00 0.00 0.00 92 1015.8
20260505002010 45 360 0.0 0.0 0.00 0.00 0.00 92 1015.8
20260505001524 45 360 0.0 0.0 0.00 0.00 0.00 92 1015.9
20260505001009 45 360 0.0 0.0 0.00 0.00 0.00 93 1015.9
20260505000509 45 360 0.0 0.0 0.00 0.00 0.00 93 1015.9
20260505000040 45 360 0.0 0.0 0.00 0.00 0.00 93 1015.9
20260504235506 45 360 0.0 0.0 0.00 0.00 0.00 94 1016.0
20260504235007 45 360 0.0 0.0 0.00 0.00 0.00 93 1016.0
20260504234514 45 360 0.0 0.0 0.00 0.00 0.00 93 1016.1
20260504234006 44 360 0.0 0.0 0.00 0.00 0.00 92 1016.1
20260504233506 44 360 0.0 0.0 0.00 0.00 0.00 91 1016.1
20260504233017 44 360 0.0 0.0 0.00 0.00 0.00 91 1016.1
20260504232505 44 360 0.0 0.0 0.00 0.00 0.00 91 1016.1
20260504232008 45 360 0.0 0.0 0.00 0.00 0.00 91 1016.1
20260504231524 45 360 0.0 0.0 0.00 0.00 0.00 91 1016.1
20260504231006 45 360 0.0 0.0 0.00 0.00 0.00 91 1016.1
20260504230509 45 360 0.0 0.0 0.00 0.00 0.00 91 1016.2
20260504230038 45 360 0.0 0.0 0.00 0.00 0.00 90 1016.2
20260504225508 45 360 0.0 0.0 0.00 0.00 0.00 89 1016.2
20260504225006 45 360 0.0 0.0 0.00 0.00 0.00 89 1016.3
20260504224527 45 360 0.0 0.0 0.00 0.00 0.00 88 1016.3
20260504224003 46 360 0.0 0.0 0.00 0.00 0.00 87 1016.3
20260504223506 46 360 0.0 0.0 0.00 0.00 0.00 87 1016.3
20260504223014 46 360 0.0 0.0 0.00 0.00 0.00 87 1016.3
20260504222507 47 360 0.0 0.0 0.00 0.00 0.00 87 1016.3
20260504222007 47 360 0.0 0.0 0.00 0.00 0.00 87 1016.4
20260504221538 47 360 0.0 0.0 0.00 0.00 0.00 87 1016.3
20260504221012 48 360 0.0 0.0 0.00 0.00 0.00 87 1016.3
20260504220508 48 360 0.0 0.0 0.00 0.00 0.00 87 1016.3
20260504220023 49 360 0.0 0.0 0.00 0.00 0.00 86 1016.3
20260504215512 49 360 0.0 0.0 0.00 0.00 0.00 84 1016.3
20260504215011 49 360 0.0 0.0 0.00 0.00 0.00 85 1016.3
20260504214526 50 360 0.0 0.0 0.00 0.00 0.00 84 1016.3
20260504214007 50 360 0.0 0.0 0.00 0.00 0.00 85 1016.3
20260504213507 50 360 0.0 0.0 0.00 0.00 0.00 85 1016.3
20260504213012 50 360 0.0 0.0 0.00 0.00 0.00 85 1016.3
20260504212504 51 360 0.0 0.0 0.00 0.00 0.00 85 1016.4
20260504212009 51 360 0.0 0.0 0.00 0.00 0.00 85 1016.4
20260504211516 51 360 0.0 0.0 0.00 0.00 0.00 85 1016.4
20260504211007 51 360 0.0 0.0 0.00 0.00 0.00 84 1016.3
20260504210508 51 360 0.0 0.0 0.00 0.00 0.00 84 1016.4
20260504210023 51 360 0.0 0.0 0.00 0.00 0.00 84 1016.5
20260504205508 51 360 0.0 0.0 0.00 0.00 0.00 83 1016.5
20260504205008 51 360 0.0 0.0 0.00 0.00 0.00 83 1016.4
20260504204528 51 360 0.0 0.0 0.00 0.00 0.00 83 1016.5
20260504204008 51 360 0.0 0.0 0.00 0.00 0.00 83 1016.4
20260504203510 52 360 0.0 0.0 0.00 0.00 0.00 82 1016.4
20260504203040 52 360 0.0 0.0 0.00 0.00 0.00 82 1016.4
20260504202512 52 29 0.0 0.0 0.00 0.00 0.00 82 1016.4
20260504202007 52 29 0.0 0.0 0.00 0.00 0.00 81 1016.4
20260504201516 52 352 0.0 0.0 0.00 0.00 0.00 81 1016.4
20260504201008 52 352 0.0 0.0 0.00 0.00 0.00 81 1016.4
20260504200511 52 344 0.0 0.0 0.00 0.00 0.00 81 1016.3